Regional Weather Roundup
Issued by NWS Portland, ME

Home | Current Version | Previous Version | Text Only | Print | Product List | Glossary On
Versions: 1 2 3 4 5 6 7 8 9 10 11 12 13 14 15 16 17 18 19 20 21 22 23 24 25 26 27 28 29 30 31 32 33 34 35 36 37 38 39 40 41 42 43 44 45 46 47 48 49 50
000
ASUS41 KGYX 280510
RWRGYX
WEATHER ROUNDUP FOR MAINE AND NEW HAMPSHIRE
NATIONAL WEATHER SERVICE GRAY ME
100 AM EDT FRI JUL 28 2017

MEZ002-005-006-010-012-015-018-020-021-024-026-027-029-280600-
MAINE

CITY           SKY/WX    TMP DP  RH WIND       PRES   REMARKS
PORTLAND       MOCLDY    65  63  93 SW3       29.81S
SANFORD          N/A     63  63 100 SE3       29.82F FOG
WISCASSET      CLEAR     60  59  96 CALM      29.81S
ROCKLAND       MOCLDY    60  60 100 W5        29.79S
FRYEBURG       CLEAR     63  62  97 CALM      29.82S
LEWISTONAUBURN CLEAR     61  61 100 CALM      29.80F FOG
AUGUSTA        CLEAR     65  63  93 W3        29.79F
WATERVILLE     FOG       61  61 100 SW3       29.76F VSB 1/4
BANGOR         FOG       61  60  97 S6        29.78F VSB 1/2
GREENVILLE       N/A    N/A N/A N/A CALM      29.77F
MILLINOCKET    LGT RAIN  65 N/A N/A CALM      29.76F
HOULTON        CLOUDY    64  63  96 SW9       29.73S
PRESQUE ISLE   CLOUDY    64  62  93 CALM      29.72F
FRENCHVILLE    CLOUDY    62  59  90 W10       29.71S
CARIBOU        CLOUDY    64  62  93 SW6       29.71S
$$

NHZ002-005-008-009-011-012-014-280600-
NEW HAMPSHIRE

CITY           SKY/WX    TMP DP  RH WIND       PRES   REMARKS
PORTSMOUTH     MOCLDY    65  64  94 SW7       29.81S FOG
ROCHESTER      CLEAR     63  61  93 CALM      29.82S
NASHUA         CLEAR     63  63 100 CALM      29.85S
MANCHESTER     PTCLDY    65  61  87 CALM      29.83S
CONCORD        CLOUDY    62  61  96 S3        29.84S
LACONIA        MOCLDY    65  62  90 W6        29.84S
PLYMOUTH       FOG       59  58  96 CALM      29.84S VSB 1
BERLIN         CLOUDY    58  55  90 E6        29.83F
WHITEFIELD     CLOUDY    62  59  90 CALM      29.85S
JAFFREY        CLOUDY    65  65 100 SW6       29.88F
KEENE          CLOUDY    63  62  97 CALM      29.87S
LEBANON        CLOUDY    62  61  96 CALM      29.85S
MT WASHINGTON  LGT RAIN  48  48 100 NW45        N/A  VSB 0
$$

VTZ005-007-008-280600-
VERMONT

CITY           SKY/WX    TMP DP  RH WIND       PRES   REMARKS
ST JOHNSBURY     N/A     62  62 100 MISG      29.83F
BURLINGTON     CLOUDY    67  66  97 CALM      29.86R
$$

MAZ007-012-024-CTZ003-RIZ002-NYZ038-NYZ072-280600-
SOUTHERN NEW ENGLAND AND NY

CITY           SKY/WX    TMP DP  RH WIND       PRES   REMARKS
BOSTON         PTCLDY    67  66  97 SW12      29.84F
WORCESTER      CLOUDY    65  63  93 W9        29.89S FOG
NANTUCKET      CLOUDY    66  65  96 SW10      29.88F
PROVIDENCE     MOCLDY    69  68  96 SW8       29.88S
HARTFORD       PTCLDY    68  67  96 SW7       29.87F
ALBANY         FOG       64  63  96 CALM      29.88S VSB 1
NEW YORK CITY  CLOUDY    75  71  87 SW5       29.86S
$$

ANZ081-ANZ082-ANZ150-NHZ014-MEZ023>029-280600-
COASTAL MARINE OBSERVATIONS

STATION/POSITION TIME  TEMP    WIND        PRES    WAVE
                       AIR SEA DIR/SP/G            HT/PER
                 (UTC) (F)     (DEG/KT/KT) (MB)    (FT/S)
MOUNT DESERT ROC 0500   58                 1008.8F
MATINICUS ROCK   0400   60     220/ 19/ 19 1008.7F
ISLE OF SHOALS   0400   65     220/ 15/ 15 1009.8S
JEFFREYS LEDGE   0406      63                N/A     3/ 3
CASHES LEDGE BUO 0350   62 61              1009.7    4/ 5
GEORGES BANK BUO 0350   65 64              1012.4    4/ 8
$$

.............KEY..............
   WCI - WIND CHILL
   TC  - TEMPERATURE IN CELSIUS
   VSB - VISIBILITY IN MILES
   HX  - HEAT INDEX
   FAIR- INDICATES FEW OR NO CLOUDS BELOW 12,000 FT, WITH NO
         SIGNIFICANT WEATHER AND/OR OBSTRUCTIONS TO VISIBILITY.






USA.gov is the U.S. government's official web portal to all federal, state and local government web resources and services.